contact:dominique.lefevre@mio.osupytheas.fr, maurice.libes@osupytheas.fr, didier.mallarino@osupytheas.fr
Project:EMSO http://www.emso-fr.org/EMSO-France
Depth: 2436.0 m
Title:EMSO Ligure Ouest : Data MII capteur AQUADOPP
Date,Latitude,Longitude,X_East,Y_North,Z_Up,Amplitude_X,Amplitude_Y,Amplitude_Z,Batterie,SoundSpeed,Heading,Pitch,Roll,Pressure,TIS,Speed,Direction
, degrees North, degrees East, m.s-1, m.s-1,m.s-1, 1, 1, 1, Volt, m.s-1, degree, degree, degree, dbar, degree_C, m.s-1, degree
2020-10-13T00:04:03,42.805,6.029,0.013,-0.028,-0.012,103.0,106.0,100.0,13.3,1505.2,328.2,-0.8,1.8,2470.335,13.3,0.03,155.1
2020-10-13T00:07:03,42.805,6.029,-0.005,-0.036,-0.025,103.0,106.0,100.0,13.4,1505.3,328.4,-0.7,1.8,2470.326,13.31,0.036,187.9
2020-10-13T00:10:03,42.805,6.029,0.036,-0.019,0.002,102.0,107.0,101.0,13.4,1505.3,324.9,-0.7,1.8,2470.355,13.32,0.04,117.8
2020-10-13T00:13:03,42.805,6.029,0.027,-0.036,-0.013,103.0,105.0,101.0,13.3,1505.3,323.4,-0.7,1.8,2470.301,13.32,0.045,143.1
2020-10-13T00:16:03,42.805,6.029,0.044,-0.043,-0.016,103.0,106.0,101.0,13.4,1505.3,326.6,-0.7,1.8,2470.304,13.32,0.061,134.3
2020-10-13T00:19:03,42.805,6.029,0.02,-0.039,0.008,103.0,105.0,100.0,13.4,1505.3,325.9,-0.7,1.8,2470.303,13.32,0.043,152.9
2020-10-13T00:22:03,42.805,6.029,0.041,-0.023,0.04,102.0,105.0,100.0,13.4,1505.3,327.5,-0.7,1.8,2470.31,13.32,0.047,119.3
2020-10-13T00:25:03,42.805,6.029,0.004,-0.032,-0.057,102.0,106.0,100.0,13.4,1505.3,324.6,-0.7,1.8,2470.274,13.32,0.032,172.9
2020-10-13T00:28:03,42.805,6.029,0.004,-0.035,-0.014,103.0,105.0,100.0,13.4,1505.3,324.3,-0.7,1.8,2470.316,13.32,0.035,173.5
2020-10-13T00:31:03,42.805,6.029,0.024,-0.041,0.013,105.0,106.0,101.0,13.4,1505.3,324.6,-0.7,1.8,2470.279,13.32,0.047,149.7
2020-10-13T00:34:03,42.805,6.029,-0.001,-0.044,-0.009,103.0,107.0,101.0,13.3,1505.3,324.5,-0.7,1.8,2470.337,13.33,0.044,181.3
2020-10-13T00:37:03,42.805,6.029,0.018,-0.029,0.009,103.0,106.0,101.0,13.3,1505.3,324.2,-0.7,1.8,2470.317,13.33,0.034,148.2
2020-10-13T00:40:03,42.805,6.029,-0.004,-0.04,-0.04,103.0,104.0,100.0,13.4,1505.3,327.0,-0.7,1.8,2470.325,13.33,0.04,185.7
2020-10-13T00:43:03,42.805,6.029,-0.003,-0.038,-0.021,103.0,105.0,102.0,13.4,1505.3,327.0,-0.7,1.8,2470.287,13.33,0.038,184.5
2020-10-13T00:46:03,42.805,6.029,-0.003,-0.021,-0.014,103.0,105.0,101.0,13.4,1505.3,323.7,-0.7,1.8,2470.316,13.33,0.021,188.1
2020-10-13T00:49:03,42.805,6.029,-0.006,-0.026,-0.027,102.0,105.0,101.0,13.3,1505.3,326.6,-0.7,1.8,2470.321,13.33,0.026,193.0
2020-10-13T00:52:03,42.805,6.029,0.021,-0.019,-0.007,103.0,104.0,102.0,13.3,1505.3,328.2,-0.7,1.8,2470.304,13.33,0.028,132.1
2020-10-13T00:55:03,42.805,6.029,0.009,-0.011,-0.037,104.0,105.0,100.0,13.4,1505.3,324.0,-0.7,1.8,2470.261,13.33,0.014,140.7
2020-10-13T00:58:03,42.805,6.029,0.018,-0.012,-0.015,102.0,104.0,100.0,13.4,1505.3,327.5,-0.7,1.9,2470.277,13.33,0.021,123.7
2020-10-13T01:04:03,42.805,6.029,0.001,-0.032,-0.045,104.0,106.0,102.0,13.4,1505.3,326.3,-0.7,1.8,2470.325,13.31,0.032,178.2
2020-10-13T01:07:03,42.805,6.029,0.02,-0.024,0.021,105.0,105.0,102.0,13.4,1505.3,324.7,-0.7,1.8,2470.319,13.31,0.031,140.2
2020-10-13T01:10:03,42.805,6.029,0.019,-0.029,-0.023,104.0,105.0,99.0,13.4,1505.3,324.0,-0.7,1.8,2470.336,13.32,0.034,146.8
2020-10-13T01:13:03,42.805,6.029,0.011,-0.029,-0.006,103.0,105.0,100.0,13.4,1505.3,326.8,-0.7,1.8,2470.314,13.32,0.031,159.2
2020-10-13T01:16:03,42.805,6.029,0.016,-0.013,-0.016,103.0,105.0,100.0,13.4,1505.3,327.1,-0.6,1.8,2470.334,13.33,0.02,129.1
2020-10-13T01:19:03,42.805,6.029,0.013,-0.026,-0.023,103.0,105.0,101.0,13.4,1505.3,327.9,-0.7,1.8,2470.348,13.33,0.029,153.4
2020-10-13T01:22:03,42.805,6.029,0.009,-0.029,-0.031,105.0,104.0,101.0,13.4,1505.3,325.6,-0.7,1.9,2470.344,13.33,0.03,162.8
2020-10-13T01:25:03,42.805,6.029,0.05,-0.01,0.029,103.0,106.0,100.0,13.4,1505.3,327.2,-0.7,1.8,2470.344,13.33,0.05,101.3
2020-10-13T01:28:03,42.805,6.029,-0.001,-0.011,-0.029,102.0,105.0,100.0,13.3,1505.3,324.3,-0.7,1.9,2470.324,13.33,0.011,185.2
2020-10-13T01:31:03,42.805,6.029,0.012,-0.013,-0.02,102.0,104.0,100.0,13.4,1505.3,322.8,-0.7,1.9,2470.296,13.33,0.017,137.3
2020-10-13T01:34:03,42.805,6.029,0.004,-0.016,0.026,103.0,105.0,101.0,13.4,1505.3,324.4,-0.7,1.8,2470.319,13.33,0.016,166.0
2020-10-13T01:37:03,42.805,6.029,0.012,-0.014,0.009,103.0,105.0,100.0,13.4,1505.3,327.6,-0.7,1.8,2470.334,13.33,0.018,139.4
2020-10-13T01:40:03,42.805,6.029,-0.006,-0.032,-0.034,104.0,105.0,102.0,13.4,1505.3,325.5,-0.7,1.9,2470.353,13.33,0.032,190.6
2020-10-13T01:43:03,42.805,6.029,0.006,-0.032,-0.038,103.0,104.0,101.0,13.4,1505.3,327.7,-0.7,1.8,2470.288,13.33,0.032,169.4
2020-10-13T01:49:03,42.805,6.029,0.004,0.0,-0.001,102.0,106.0,100.0,13.4,1505.3,327.3,-0.7,1.8,2470.355,13.31,0.004,90.0
2020-10-13T01:52:03,42.805,6.029,0.001,-0.005,0.004,103.0,105.0,99.0,13.4,1505.3,323.4,-0.7,1.8,2470.338,13.32,0.005,168.7
2020-10-13T01:55:03,42.805,6.029,0.0,-0.002,0.007,102.0,105.0,101.0,13.4,1505.3,325.4,-0.7,1.8,2470.344,13.32,0.002,180.0
2020-10-13T01:58:03,42.805,6.029,0.011,-0.013,-0.012,102.0,106.0,101.0,13.4,1505.3,323.6,-0.7,1.9,2470.346,13.32,0.017,139.8
2020-10-13T02:04:03,42.805,6.029,0.055,-0.015,0.014,102.0,106.0,100.0,13.3,1505.3,325.8,-0.7,1.8,2470.423,13.31,0.057,105.3
2020-10-13T02:07:03,42.805,6.029,-0.021,-0.008,-0.011,102.0,107.0,100.0,13.3,1505.3,326.8,-0.7,1.8,2470.358,13.31,0.022,249.1
2020-10-13T02:10:03,42.805,6.029,0.017,-0.028,0.009,103.0,106.0,100.0,13.3,1505.3,325.9,-0.7,1.8,2470.373,13.32,0.032,148.7
2020-10-13T02:13:03,42.805,6.029,0.002,-0.024,-0.023,105.0,105.0,100.0,13.3,1505.3,322.8,-0.7,1.8,2470.335,13.32,0.024,175.2
2020-10-13T02:16:03,42.805,6.029,0.004,-0.01,-0.076,103.0,106.0,99.0,13.4,1505.3,326.2,-0.7,1.8,2470.325,13.33,0.01,158.2
2020-10-13T02:19:03,42.805,6.029,-0.002,-0.009,-0.015,104.0,106.0,103.0,13.3,1505.3,327.3,-0.7,1.8,2470.355,13.33,0.009,192.5
2020-10-13T02:22:03,42.805,6.029,0.011,-0.011,-0.008,100.0,107.0,102.0,13.4,1505.3,327.5,-0.7,1.8,2470.329,13.33,0.015,135.0
2020-10-13T02:25:03,42.805,6.029,0.014,-0.005,0.007,102.0,107.0,100.0,13.3,1505.3,325.2,-0.7,1.8,2470.37,13.33,0.014,109.6
2020-10-13T02:28:03,42.805,6.029,0.019,-0.007,0.006,102.0,106.0,101.0,13.4,1505.3,323.8,-0.7,1.9,2470.33,13.33,0.02,110.2
2020-10-13T02:31:03,42.805,6.029,0.023,-0.004,0.001,103.0,103.0,100.0,13.4,1505.3,325.6,-0.7,1.9,2470.334,13.33,0.023,99.9
2020-10-13T02:34:03,42.805,6.029,0.012,-0.007,-0.019,103.0,105.0,99.0,13.3,1505.3,325.1,-0.7,1.8,2470.316,13.33,0.013,120.3
2020-10-13T02:37:03,42.805,6.029,-0.015,-0.012,-0.014,102.0,107.0,99.0,13.4,1505.3,325.9,-0.7,1.8,2470.377,13.33,0.019,231.3
2020-10-13T02:40:03,42.805,6.029,-0.028,-0.01,-0.01,101.0,106.0,100.0,13.3,1505.3,326.4,-0.7,1.8,2470.343,13.33,0.029,250.4
2020-10-13T02:43:03,42.805,6.029,0.001,-0.012,-0.07,103.0,107.0,102.0,13.4,1505.3,325.9,-0.7,1.8,2470.328,13.33,0.012,175.2
2020-10-13T02:46:03,42.805,6.029,0.005,-0.01,-0.003,102.0,106.0,101.0,13.4,1505.3,324.1,-0.7,1.8,2470.39,13.33,0.011,153.4
2020-10-13T02:49:03,42.805,6.029,-0.018,-0.004,-0.015,103.0,106.0,103.0,13.4,1505.3,326.5,-0.7,1.8,2470.368,13.33,0.018,257.5
2020-10-13T02:52:03,42.805,6.029,-0.001,-0.017,-0.036,104.0,107.0,99.0,13.3,1505.3,325.0,-0.7,1.8,2470.352,13.33,0.017,183.4
2020-10-13T02:55:03,42.805,6.029,0.001,-0.028,-0.024,102.0,106.0,100.0,13.3,1505.3,325.0,-0.7,1.9,2470.365,13.33,0.028,178.0
2020-10-13T02:58:03,42.805,6.029,-0.006,0.015,-0.007,104.0,107.0,100.0,13.4,1505.3,325.4,-0.7,1.8,2470.346,13.33,0.016,338.2
2020-10-13T03:04:03,42.805,6.029,0.021,-0.023,0.018,104.0,106.0,100.0,13.3,1505.3,326.6,-0.7,1.8,2470.384,13.31,0.031,137.6
2020-10-13T03:07:03,42.805,6.029,0.007,-0.013,-0.024,102.0,107.0,100.0,13.4,1505.3,324.8,-0.7,1.8,2470.372,13.31,0.014,151.7
2020-10-13T03:10:03,42.805,6.029,0.029,0.003,0.007,103.0,107.0,99.0,13.4,1505.3,327.8,-0.7,1.9,2470.377,13.32,0.029,84.1
2020-10-13T03:13:03,42.805,6.029,0.026,-0.004,0.036,105.0,107.0,100.0,13.4,1505.3,326.6,-0.7,1.9,2470.408,13.32,0.026,98.7
2020-10-13T03:16:03,42.805,6.029,0.015,-0.002,0.002,104.0,107.0,100.0,13.3,1505.3,326.4,-0.7,1.8,2470.369,13.32,0.015,97.6
2020-10-13T03:19:03,42.805,6.029,0.007,0.006,0.013,104.0,107.0,101.0,13.3,1505.3,326.3,-0.7,1.8,2470.428,13.33,0.009,49.4
2020-10-13T03:22:03,42.805,6.029,0.017,0.02,-0.008,104.0,106.0,101.0,13.4,1505.3,323.6,-0.7,1.8,2470.335,13.33,0.026,40.4
2020-10-13T03:25:03,42.805,6.029,0.029,-0.001,-0.001,103.0,105.0,100.0,13.3,1505.3,327.3,-0.7,1.8,2470.421,13.33,0.029,92.0
2020-10-13T03:28:03,42.805,6.029,0.013,-0.005,-0.026,102.0,106.0,101.0,13.4,1505.3,327.6,-0.7,1.8,2470.367,13.33,0.013,111.0
2020-10-13T03:31:03,42.805,6.029,0.014,-0.005,0.005,103.0,105.0,101.0,13.3,1505.3,327.9,-0.7,1.8,2470.365,13.33,0.014,109.6
2020-10-13T03:34:03,42.805,6.029,0.019,-0.008,-0.045,102.0,105.0,101.0,13.3,1505.3,324.6,-0.7,1.8,2470.365,13.33,0.02,112.8
2020-10-13T03:37:03,42.805,6.029,0.028,-0.01,-0.009,103.0,106.0,100.0,13.3,1505.3,325.0,-0.7,1.9,2470.346,13.33,0.029,109.6
2020-10-13T03:40:03,42.805,6.029,0.01,-0.003,0.031,105.0,105.0,99.0,13.4,1505.3,324.5,-0.7,1.8,2470.366,13.33,0.01,106.7
2020-10-13T03:43:03,42.805,6.029,0.033,-0.016,-0.001,104.0,104.0,102.0,13.3,1505.3,324.4,-0.7,1.8,2470.378,13.32,0.036,115.9
2020-10-13T03:46:03,42.805,6.029,0.01,0.0,-0.006,103.0,107.0,99.0,13.3,1505.3,325.1,-0.7,1.8,2470.402,13.33,0.01,90.0
2020-10-13T03:49:03,42.805,6.029,-0.02,-0.008,-0.055,103.0,107.0,101.0,13.4,1505.3,324.6,-0.7,1.8,2470.396,13.33,0.021,248.2
2020-10-13T03:52:03,42.805,6.029,-0.002,0.003,-0.039,104.0,108.0,100.0,13.3,1505.3,324.5,-0.7,1.8,2470.368,13.33,0.003,326.3
2020-10-13T03:55:03,42.805,6.029,0.052,0.01,0.02,102.0,105.0,100.0,13.4,1505.3,323.6,-0.7,1.8,2470.367,13.33,0.052,79.1
2020-10-13T04:04:03,42.805,6.029,0.046,0.001,0.027,104.0,107.0,101.0,13.4,1505.2,326.0,-0.8,1.8,2470.471,13.29,0.046,88.8
2020-10-13T04:07:03,42.805,6.029,0.023,0.001,0.019,103.0,107.0,101.0,13.4,1505.3,327.7,-0.7,1.8,2470.439,13.31,0.023,87.5
2020-10-13T04:10:03,42.805,6.029,-0.019,-0.016,-0.014,104.0,108.0,101.0,13.3,1505.3,326.1,-0.7,1.8,2470.402,13.31,0.024,229.9
2020-10-13T04:13:04,42.805,6.029,0.021,0.009,0.016,102.0,107.0,100.0,13.3,1505.3,328.6,-0.7,1.9,2470.492,13.32,0.022,66.8
2020-10-13T04:16:03,42.805,6.029,0.029,0.021,-0.003,101.0,109.0,100.0,13.3,1505.3,323.6,-0.7,1.8,2470.432,13.32,0.035,54.1
2020-10-13T04:19:03,42.805,6.029,-0.015,0.005,-0.025,102.0,108.0,100.0,13.4,1505.3,324.6,-0.7,1.8,2470.449,13.32,0.015,288.4
2020-10-13T04:22:03,42.805,6.029,0.021,-0.001,-0.045,103.0,109.0,101.0,13.4,1505.3,324.4,-0.7,1.9,2470.392,13.32,0.021,92.7
2020-10-13T04:25:03,42.805,6.029,0.034,-0.003,0.009,103.0,107.0,101.0,13.4,1505.3,328.0,-0.7,1.8,2470.434,13.32,0.034,95.0
2020-10-13T04:28:03,42.805,6.029,0.003,0.008,0.016,105.0,108.0,99.0,13.3,1505.3,324.1,-0.7,1.8,2470.413,13.32,0.008,20.6
2020-10-13T04:31:03,42.805,6.029,-0.019,-0.005,-0.036,103.0,109.0,100.0,13.4,1505.3,323.4,-0.7,1.8,2470.455,13.32,0.019,255.3
2020-10-13T04:34:03,42.805,6.029,-0.015,-0.013,-0.032,104.0,109.0,101.0,13.4,1505.3,324.7,-0.7,1.9,2470.424,13.32,0.019,229.1
2020-10-13T04:37:03,42.805,6.029,-0.006,0.017,-0.019,103.0,109.0,100.0,13.3,1505.3,324.1,-0.7,1.8,2470.368,13.32,0.018,340.6
2020-10-13T04:40:03,42.805,6.029,-0.019,0.003,-0.026,103.0,109.0,100.0,13.4,1505.3,327.2,-0.7,1.8,2470.407,13.32,0.019,279.0
2020-10-13T04:43:03,42.805,6.029,-0.006,-0.005,-0.005,103.0,110.0,100.0,13.4,1505.3,327.1,-0.7,1.9,2470.378,13.32,0.007,230.2
2020-10-13T04:46:03,42.805,6.029,0.006,-0.006,-0.031,103.0,108.0,100.0,13.3,1505.3,324.2,-0.7,1.8,2470.441,13.32,0.008,135.0
2020-10-13T04:49:03,42.805,6.029,0.003,0.001,-0.033,104.0,107.0,100.0,13.4,1505.3,324.1,-0.7,1.8,2470.385,13.33,0.003,71.6
2020-10-13T04:52:03,42.805,6.029,0.011,-0.002,-0.008,103.0,108.0,101.0,13.3,1505.3,328.5,-0.7,1.9,2470.41,13.33,0.011,100.3
2020-10-13T04:55:03,42.805,6.029,0.022,0.009,0.004,103.0,106.0,101.0,13.4,1505.3,328.1,-0.7,1.8,2470.393,13.33,0.023,67.8
2020-10-13T04:58:03,42.805,6.029,-0.012,-0.023,-0.051,104.0,108.0,101.0,13.3,1505.3,326.6,-0.7,1.8,2470.379,13.33,0.025,207.6
2020-10-13T05:04:03,42.805,6.029,-0.013,-0.008,-0.043,102.0,109.0,101.0,13.4,1505.3,323.2,-0.7,1.9,2470.415,13.31,0.015,238.4
2020-10-13T05:07:03,42.805,6.029,0.004,-0.002,-0.008,103.0,107.0,100.0,13.3,1505.3,326.0,-0.7,1.8,2470.411,13.31,0.004,116.6
2020-10-13T05:10:03,42.805,6.029,0.024,-0.019,-0.005,104.0,108.0,101.0,13.3,1505.3,323.0,-0.7,1.8,2470.37,13.32,0.03,128.4
2020-10-13T05:13:03,42.805,6.029,0.008,-0.003,0.003,103.0,108.0,100.0,13.4,1505.3,326.7,-0.7,1.9,2470.412,13.32,0.008,110.6
2020-10-13T05:16:03,42.805,6.029,0.005,-0.001,-0.009,103.0,109.0,100.0,13.3,1505.3,326.6,-0.7,1.8,2470.416,13.32,0.005,101.3
2020-10-13T05:19:03,42.805,6.029,0.016,-0.001,-0.03,104.0,108.0,100.0,13.3,1505.3,324.3,-0.7,1.9,2470.4,13.32,0.016,93.6
2020-10-13T05:22:03,42.805,6.029,0.003,-0.017,-0.014,102.0,110.0,102.0,13.4,1505.3,327.8,-0.7,1.8,2470.348,13.32,0.017,170.0
2020-10-13T05:25:03,42.805,6.029,0.004,-0.03,-0.012,105.0,108.0,102.0,13.4,1505.3,326.1,-0.7,1.8,2470.412,13.32,0.03,172.4
2020-10-13T05:28:03,42.805,6.029,0.01,-0.018,-0.013,103.0,109.0,100.0,13.4,1505.3,327.1,-0.7,1.8,2470.392,13.33,0.02,150.9
2020-10-13T05:31:03,42.805,6.029,0.035,0.004,0.014,106.0,107.0,101.0,13.3,1505.3,327.2,-0.7,1.8,2470.376,13.32,0.035,83.5
2020-10-13T05:34:03,42.805,6.029,0.043,-0.014,0.002,105.0,109.0,101.0,13.4,1505.3,322.8,-0.7,1.9,2470.43,13.32,0.045,108.0
2020-10-13T05:37:03,42.805,6.029,0.025,-0.012,-0.003,103.0,108.0,101.0,13.4,1505.3,323.7,-0.7,1.8,2470.358,13.32,0.027,115.6
2020-10-13T05:40:03,42.805,6.029,0.017,-0.011,0.003,104.0,107.0,100.0,13.3,1505.3,323.7,-0.7,1.8,2470.369,13.32,0.02,122.9
2020-10-13T05:43:03,42.805,6.029,0.032,-0.014,0.008,106.0,107.0,101.0,13.4,1505.3,325.2,-0.7,1.8,2470.386,13.32,0.034,113.6
2020-10-13T05:46:03,42.805,6.029,0.005,-0.012,-0.007,105.0,109.0,100.0,13.4,1505.3,323.7,-0.7,1.8,2470.366,13.32,0.013,157.4
2020-10-13T05:49:03,42.805,6.029,0.022,0.004,0.027,103.0,107.0,101.0,13.3,1505.3,328.4,-0.7,1.8,2470.39,13.32,0.022,79.7
2020-10-13T05:52:03,42.805,6.029,0.032,-0.014,0.005,102.0,106.0,101.0,13.4,1505.3,322.9,-0.7,1.8,2470.4,13.32,0.034,113.6
2020-10-13T05:55:03,42.805,6.029,0.047,-0.015,0.028,104.0,105.0,102.0,13.3,1505.3,323.0,-0.7,1.9,2470.394,13.32,0.049,107.7
2020-10-13T05:58:03,42.805,6.029,0.025,0.008,0.008,104.0,107.0,101.0,13.4,1505.3,324.4,-0.7,1.8,2470.368,13.32,0.026,72.3
2020-10-13T06:04:03,42.805,6.029,0.043,-0.012,-0.007,103.0,108.0,101.0,13.3,1505.2,325.2,-0.7,1.8,2470.389,13.3,0.044,105.6
2020-10-13T06:07:03,42.805,6.029,0.03,-0.019,0.002,104.0,107.0,101.0,13.4,1505.3,325.8,-0.7,1.9,2470.388,13.31,0.035,122.3
2020-10-13T06:10:03,42.805,6.029,0.041,-0.014,0.0,104.0,106.0,101.0,13.4,1505.3,325.2,-0.8,1.8,2470.404,13.32,0.043,108.9
2020-10-13T06:13:03,42.805,6.029,0.035,-0.015,0.002,103.0,106.0,101.0,13.3,1505.3,328.6,-0.7,1.8,2470.415,13.32,0.038,113.2
2020-10-13T06:16:03,42.805,6.029,0.014,0.002,0.018,104.0,108.0,101.0,13.3,1505.3,322.8,-0.7,1.8,2470.38,13.32,0.014,81.9
2020-10-13T06:19:03,42.805,6.029,0.006,-0.021,-0.008,103.0,107.0,101.0,13.3,1505.3,326.0,-0.7,1.8,2470.375,13.32,0.021,164.1
2020-10-13T06:22:03,42.805,6.029,0.012,0.0,-0.018,103.0,106.0,101.0,13.4,1505.3,327.3,-0.6,1.8,2470.374,13.32,0.012,90.0
2020-10-13T06:25:03,42.805,6.029,0.052,0.003,-0.018,104.0,107.0,100.0,13.3,1505.3,322.8,-0.7,1.8,2470.364,13.32,0.052,86.7
2020-10-13T06:28:03,42.805,6.029,0.022,-0.031,0.006,103.0,106.0,100.0,13.3,1505.3,323.5,-0.7,1.8,2470.374,13.32,0.038,144.6
2020-10-13T06:31:03,42.805,6.029,0.031,-0.012,0.016,103.0,106.0,100.0,13.4,1505.3,322.5,-0.7,1.8,2470.383,13.32,0.033,111.2
2020-10-13T06:34:03,42.805,6.029,0.042,-0.025,0.022,103.0,107.0,101.0,13.4,1505.3,325.7,-0.7,1.8,2470.357,13.32,0.048,120.8
2020-10-13T06:37:03,42.805,6.029,0.001,-0.013,-0.007,105.0,105.0,101.0,13.4,1505.3,324.5,-0.7,1.9,2470.346,13.32,0.013,175.6
2020-10-13T06:40:03,42.805,6.029,0.033,-0.02,0.018,102.0,104.0,102.0,13.4,1505.3,326.6,-0.7,1.8,2470.339,13.32,0.038,121.2
2020-10-13T06:43:03,42.805,6.029,0.025,-0.032,-0.012,102.0,105.0,101.0,13.3,1505.3,325.7,-0.7,1.8,2470.368,13.32,0.04,142.0
2020-10-13T06:46:03,42.805,6.029,0.044,-0.023,0.002,103.0,106.0,100.0,13.4,1505.3,324.5,-0.7,1.8,2470.349,13.32,0.049,117.6
2020-10-13T06:49:03,42.805,6.029,0.014,-0.026,-0.02,104.0,104.0,101.0,13.4,1505.3,327.6,-0.7,1.9,2470.355,13.32,0.029,151.7
2020-10-13T06:52:03,42.805,6.029,0.018,-0.021,0.0,103.0,106.0,101.0,13.4,1505.3,323.2,-0.7,1.8,2470.359,13.32,0.027,139.4
2020-10-13T06:55:03,42.805,6.029,0.054,-0.016,0.027,105.0,104.0,101.0,13.4,1505.3,324.4,-0.7,1.8,2470.369,13.32,0.056,106.5
2020-10-13T06:58:03,42.805,6.029,0.029,-0.014,0.004,104.0,106.0,101.0,13.3,1505.3,324.0,-0.7,1.8,2470.365,13.32,0.032,115.8
2020-10-13T07:04:03,42.805,6.029,0.024,-0.031,0.016,105.0,109.0,101.0,13.4,1505.2,327.0,-0.7,1.8,2470.42,13.3,0.039,142.3
2020-10-13T07:07:03,42.805,6.029,-0.003,-0.009,-0.018,101.0,105.0,102.0,13.3,1505.3,327.9,-0.8,1.9,2470.373,13.31,0.009,198.4
2020-10-13T07:10:03,42.805,6.029,0.018,-0.025,-0.01,102.0,106.0,101.0,13.3,1505.3,323.9,-0.7,1.8,2470.401,13.32,0.03,144.2
2020-10-13T07:13:03,42.805,6.029,0.031,-0.004,0.037,103.0,105.0,101.0,13.4,1505.3,322.9,-0.7,1.8,2470.341,13.32,0.031,97.3
2020-10-13T07:16:03,42.805,6.029,0.026,-0.014,-0.008,105.0,104.0,101.0,13.4,1505.3,326.4,-0.7,1.8,2470.342,13.32,0.029,118.3
2020-10-13T07:19:03,42.805,6.029,0.028,-0.022,0.0,103.0,105.0,101.0,13.4,1505.3,326.7,-0.7,1.9,2470.395,13.32,0.035,128.2
2020-10-13T07:25:03,42.805,6.029,0.016,-0.024,0.001,103.0,104.0,101.0,13.4,1505.2,323.3,-0.8,1.9,2470.385,13.3,0.028,146.3
2020-10-13T07:28:03,42.805,6.029,0.023,-0.014,0.005,104.0,105.0,101.0,13.4,1505.3,325.9,-0.7,1.8,2470.377,13.31,0.026,121.3
2020-10-13T07:31:03,42.805,6.029,0.04,-0.021,0.031,104.0,105.0,100.0,13.4,1505.3,322.9,-0.7,1.8,2470.431,13.31,0.045,117.7
2020-10-13T07:34:03,42.805,6.029,0.006,-0.023,-0.01,103.0,105.0,101.0,13.4,1505.3,324.9,-0.7,1.8,2470.346,13.32,0.023,165.4
2020-10-13T07:37:03,42.805,6.029,0.04,-0.003,0.012,101.0,105.0,101.0,13.4,1505.3,326.4,-0.7,1.8,2470.38,13.32,0.04,94.3
2020-10-13T07:40:03,42.805,6.029,0.026,-0.022,0.0,104.0,106.0,100.0,13.4,1505.3,323.2,-0.7,1.8,2470.402,13.32,0.034,130.2
2020-10-13T07:46:03,42.805,6.029,0.027,-0.019,0.002,104.0,106.0,101.0,13.4,1505.2,327.2,-0.7,1.8,2470.406,13.3,0.033,125.1
2020-10-13T07:49:03,42.805,6.029,-0.004,-0.019,-0.004,103.0,105.0,100.0,13.4,1505.3,324.1,-0.7,1.9,2470.396,13.31,0.019,191.9
2020-10-13T07:52:03,42.805,6.029,0.017,-0.008,0.004,103.0,105.0,101.0,13.4,1505.3,326.2,-0.7,1.8,2470.328,13.31,0.018,115.2
2020-10-13T07:55:03,42.805,6.029,0.037,-0.01,0.0,105.0,105.0,101.0,13.3,1505.3,324.5,-0.7,1.8,2470.341,13.32,0.038,105.1
2020-10-13T07:58:03,42.805,6.029,0.008,-0.017,-0.005,104.0,105.0,100.0,13.3,1505.3,326.4,-0.7,1.8,2470.337,13.32,0.018,154.8
2020-10-13T08:04:03,42.805,6.029,0.024,-0.008,0.001,103.0,105.0,101.0,13.4,1505.2,325.9,-0.7,1.8,2470.402,13.3,0.025,108.4
2020-10-13T08:07:03,42.805,6.029,0.008,-0.007,0.002,104.0,107.0,101.0,13.4,1505.3,327.1,-0.7,1.8,2470.343,13.31,0.01,131.2
2020-10-13T08:10:03,42.805,6.029,0.027,-0.021,0.017,103.0,106.0,100.0,13.3,1505.3,327.2,-0.7,1.8,2470.347,13.31,0.034,127.9
2020-10-13T08:13:03,42.805,6.029,0.033,-0.023,0.01,103.0,106.0,101.0,13.4,1505.3,324.9,-0.7,1.9,2470.37,13.32,0.04,124.9
2020-10-13T08:16:03,42.805,6.029,0.014,-0.022,-0.032,103.0,104.0,100.0,13.3,1505.3,327.4,-0.7,1.8,2470.304,13.32,0.026,147.5
2020-10-13T08:19:03,42.805,6.029,0.04,-0.035,-0.014,102.0,105.0,102.0,13.3,1505.3,325.1,-0.7,1.8,2470.351,13.32,0.053,131.2
2020-10-13T08:22:03,42.805,6.029,0.03,-0.024,0.002,102.0,107.0,100.0,13.4,1505.3,322.8,-0.7,1.8,2470.39,13.32,0.038,128.7
2020-10-13T08:25:03,42.805,6.029,0.045,-0.026,0.026,104.0,106.0,99.0,13.3,1505.3,326.2,-0.7,1.8,2470.283,13.32,0.051,120.0
2020-10-13T08:28:03,42.805,6.029,0.021,-0.029,0.002,101.0,105.0,101.0,13.3,1505.3,325.1,-0.7,1.9,2470.305,13.32,0.035,144.1
2020-10-13T08:31:03,42.805,6.029,0.021,-0.027,0.006,103.0,104.0,101.0,13.4,1505.3,328.3,-0.7,1.8,2470.291,13.32,0.034,142.1
2020-10-13T08:34:03,42.805,6.029,0.006,-0.009,-0.001,103.0,107.0,101.0,13.4,1505.3,324.4,-0.7,1.9,2470.333,13.32,0.01,146.3
2020-10-13T08:37:03,42.805,6.029,0.042,-0.024,0.001,103.0,107.0,100.0,13.3,1505.3,326.5,-0.7,1.8,2470.27,13.32,0.048,119.7
2020-10-13T08:40:03,42.805,6.029,0.07,-0.023,-0.016,102.0,107.0,100.0,13.4,1505.3,326.5,-0.7,1.8,2470.339,13.32,0.073,108.2
2020-10-13T08:43:03,42.805,6.029,0.042,-0.017,0.026,103.0,105.0,100.0,13.4,1505.3,326.4,-0.7,1.8,2470.306,13.32,0.045,112.0
2020-10-13T08:46:03,42.805,6.029,0.041,-0.039,0.007,101.0,106.0,101.0,13.4,1505.3,324.7,-0.7,1.8,2470.31,13.32,0.056,133.6
2020-10-13T08:49:03,42.805,6.029,0.042,-0.026,0.02,103.0,107.0,99.0,13.4,1505.3,323.8,-0.7,1.8,2470.325,13.32,0.049,121.8
2020-10-13T08:52:03,42.805,6.029,0.022,-0.024,0.012,102.0,105.0,99.0,13.3,1505.3,326.4,-0.7,1.8,2470.308,13.32,0.032,137.5
2020-10-13T08:55:03,42.805,6.029,0.051,-0.021,0.037,104.0,105.0,99.0,13.4,1505.3,325.5,-0.7,1.8,2470.318,13.32,0.055,112.4
2020-10-13T08:58:03,42.805,6.029,0.026,-0.012,-0.001,104.0,106.0,100.0,13.4,1505.3,324.8,-0.7,1.8,2470.295,13.32,0.028,114.8
2020-10-13T09:04:03,42.805,6.029,0.019,-0.02,-0.005,102.0,107.0,101.0,13.4,1505.2,323.0,-0.8,1.8,2470.341,13.3,0.027,136.5
2020-10-13T09:07:03,42.805,6.029,0.039,-0.028,0.014,103.0,106.0,102.0,13.4,1505.3,324.6,-0.7,1.8,2470.341,13.31,0.048,125.7
2020-10-13T09:10:03,42.805,6.029,0.044,-0.03,-0.01,101.0,106.0,100.0,13.4,1505.3,325.8,-0.7,1.8,2470.357,13.31,0.053,124.3
2020-10-13T09:13:03,42.805,6.029,0.01,-0.018,-0.003,101.0,105.0,101.0,13.3,1505.3,326.0,-0.7,1.9,2470.29,13.32,0.02,150.9
2020-10-13T09:16:03,42.805,6.029,0.047,-0.019,0.011,103.0,105.0,102.0,13.4,1505.3,327.7,-0.7,1.8,2470.369,13.32,0.05,112.0
2020-10-13T09:19:03,42.805,6.029,0.018,-0.04,-0.009,104.0,106.0,102.0,13.4,1505.3,323.4,-0.7,1.8,2470.325,13.32,0.043,155.8
2020-10-13T09:22:03,42.805,6.029,0.005,-0.007,-0.031,102.0,105.0,100.0,13.4,1505.3,324.4,-0.7,1.8,2470.36,13.32,0.008,144.5
2020-10-13T09:28:03,42.805,6.029,0.029,-0.036,-0.005,103.0,106.0,101.0,13.4,1505.2,325.9,-0.7,1.8,2470.313,13.3,0.046,141.1
2020-10-13T09:31:03,42.805,6.029,0.026,-0.027,-0.024,102.0,105.0,101.0,13.4,1505.3,326.9,-0.7,1.8,2470.335,13.31,0.037,136.1
2020-10-13T09:34:03,42.805,6.029,0.013,-0.035,0.0,103.0,106.0,100.0,13.4,1505.3,324.6,-0.7,1.8,2470.321,13.31,0.037,159.6
2020-10-13T09:37:03,42.805,6.029,0.023,-0.029,-0.034,103.0,106.0,101.0,13.4,1505.3,326.3,-0.7,1.8,2470.307,13.32,0.037,141.6
2020-10-13T09:40:03,42.805,6.029,0.035,-0.029,0.003,102.0,104.0,101.0,13.4,1505.3,327.9,-0.7,1.8,2470.288,13.32,0.045,129.6
2020-10-13T09:43:03,42.805,6.029,0.032,-0.029,0.027,101.0,106.0,103.0,13.4,1505.3,327.8,-0.7,1.8,2470.314,13.32,0.043,132.2
2020-10-13T09:46:03,42.805,6.029,0.037,-0.017,0.012,103.0,105.0,101.0,13.4,1505.3,327.9,-0.7,1.8,2470.297,13.32,0.04,114.7
2020-10-13T09:49:03,42.805,6.029,0.048,-0.007,0.031,103.0,106.0,101.0,13.4,1505.3,328.3,-0.7,1.8,2470.326,13.32,0.048,98.3
2020-10-13T09:52:03,42.805,6.029,0.046,-0.024,0.03,103.0,108.0,101.0,13.3,1505.3,327.2,-0.7,1.8,2470.315,13.32,0.051,117.6
2020-10-13T09:55:03,42.805,6.029,0.022,-0.022,0.018,102.0,107.0,101.0,13.3,1505.3,327.2,-0.7,1.8,2470.337,13.32,0.031,135.0
2020-10-13T09:58:03,42.805,6.029,0.031,-0.035,0.009,103.0,106.0,100.0,13.3,1505.3,325.2,-0.7,1.8,2470.3,13.32,0.046,138.5
2020-10-13T10:04:03,42.805,6.029,0.058,-0.029,-0.037,102.0,106.0,101.0,13.3,1505.2,327.9,-0.7,1.8,2470.368,13.3,0.064,116.6
2020-10-13T10:07:03,42.805,6.029,0.06,-0.031,-0.009,103.0,105.0,101.0,13.4,1505.3,324.3,-0.7,1.8,2470.333,13.31,0.067,117.3
2020-10-13T10:10:03,42.805,6.029,0.024,-0.028,-0.016,103.0,107.0,101.0,13.4,1505.3,326.4,-0.7,1.8,2470.322,13.31,0.036,139.4
2020-10-13T10:13:03,42.805,6.029,0.005,-0.019,0.002,103.0,106.0,101.0,13.4,1505.3,326.9,-0.7,1.8,2470.306,13.32,0.019,165.3
2020-10-13T10:16:03,42.805,6.029,0.019,0.0,0.009,103.0,107.0,101.0,13.3,1505.3,325.2,-0.7,1.9,2470.326,13.32,0.019,90.0